Location: *
(30.4476°N, 114.3798°E)
Time: 01:47:34
(UTC+00:00)

Cosmos 2151 Rocket - Pass Details

Date: 09 April 2020
Orbit: 618 x 641 km, 82.5° (Epoch: 31 May)

Event Time Altitude Azimuth Distance (km) Brightness Sun altitude
Rises 20:28:43 0° 346° (NNW) 2,894 7.1 -19.9°
Reaches altitude 10° 20:31:00 10° 341° (NNW) 1,985 6.2 -19.5°
Maximum altitude 20:35:13 48° 267° (W) 808 3.7 -18.6°
Enters shadow 20:36:44 33° 216° (SW) 1,037 4.2 -18.3°
